Weather in Mostovoe

Ukraine / Mykolaiv District     48°03′34″N   31°34′15″E
temp.,
°C
wind,
m/s
gust,
m/s
humid.,
%
clouds,
%
prec.,
mm/h
press.,
hPa
HPBL,
m
7 july, thu
thu700:00+25ssw353455 0.0 101167
03:00+21nnw355648 0.0 101289
06:00+19nne4781100 0.0 1012255
09:00+21n567019 0.1 1013357
12:00+27nne434757 0.3 10131016
15:00+27nne434741 0.3 1013866
18:00+28ene5338100 0.0 10121253
21:00+23n510585 0.0 1013312
8 july, fri
fri800:00+18n51182100 0.8 1014223
03:00+17n61288100 1.8 1013241
06:00+17nne6128896 0.4 1013278
09:00+22nne7972100 0.7 1014541
12:00+27nne664681 0.0 10131192
15:00+31nne5531100 0.0 10123112
18:00+22sse5670100 2.0 1013413
21:00+19n71277100 6.6 1013246
9 july, sat
sat900:00+19nne91583100 1.2 1013306
03:00+17nne51185100 2.0 1012224
06:00+17nne51186100 0.3 1012267
09:00+21nnw4771100 0.4 1011379
12:00+23n7857100 0.0 1011685
15:00+28nne883914 0.0 10101509
18:00+25n784562 0.0 1009808
21:00+20n6116288 0.0 1010392
10 july, sun
sun1000:00+18n61365100 0.0 1009326
03:00+18n61467100 0.0 1008359
06:00+17n61367100 0.1 1007427
09:00+21n7960100 0.5 1007628
12:00+23n7855100 1.3 10071047
15:00+26nnw7745100 1.3 10061698
18:00+24nnw894712 0.2 10051548
21:00+20nnw61264100 0.4 1007562
11 july, mon
mon1100:00+19nnw71361100 0.1 1007758
03:00+19nnw71356100 0.1 1007777
06:00+17nnw71354100 0.0 1008630
09:00+20nnw81145100 0.0 10091123
12:00+24nw7834100 0.0 10102191
15:00+26wnw572779 0.0 10103064
18:00+25w782364 0.0 10102908
21:00+20nw473947 0.0 1013190